Riverside Airport

Jump to: basic info | weather | frequencies | runways | comments

Related pages: nearby airports | nearby navaids | notams | map

Basic information (top)

Codes: LLE FAMN
Location: lon -25.430000, lat 31.576700, elev 1,024 ft / 312 m msl
Status: medium_airport

Weather (top)

Current conditions for Kruger Mpumalanga International Airport 26nm (48km) W (rec'd 2015/04/26 06:00Z):

FAKN 260600Z 34002KT 6000 VCFG SCT006 16/14 Q1021 NOSIG

Airport forecast for Kruger Mpumalanga International Airport 26nm (48km) W (rec'd 2015/04/19 10:30Z):

TAF FAKN 190900Z 1910/1918 35006KT 9999 BKN015 
     FM191200 33010KT 9999 BKN025 PROB30 
      TEMPO 1912/1916 -SHRA BKN015 FEW030TCU TX15/1912ZTN17/1918Z

Frequencies (top)

Verify before use: may be inaccurate or out of date.

CTAF: 124.8 MHz (CTAF)

Runways (top)

09/27: 4,041 x 66 ft (1,232 x 20 m) — paved — lighted — threshold 27 displaced 760 ft (232 m)

Latest comments (top)

No comments yet for Riverside Airport

More... (top)

See also NOTAMs and nearby airports and navaids, or visit the Riverside Airport page at the main OurAirports website..